• In Hungary
  • List of Countries
  • For 7 days
  • Water Temperature
  • Satellite Maps
  • Weather Map
  • News
  • Weather Widgets
  • user-avatar
    Login

    Hourly Weather Holodnyy Klyuch

    Today, 20 September, Thursday

    Time Temperature Precipitation Wind Pressure Humidity
    00:00 +8°C° 0.1 mm 6 mps 734 mmHg 88%
    01:00 +7°C° 0.1 mm 6 mps 734 mmHg 87%
    02:00 +7°C° 0 mm 6 mps 734 mmHg 88%
    03:00 +7°C° 0 mm 6 mps 734 mmHg 88%
    04:00 +5°C° 0 mm 6 mps 734 mmHg 89%
    05:00 +5°C° 0 mm 6 mps 735 mmHg 89%
    06:00 +5°C° 0 mm 6 mps 735 mmHg 89%
    07:00 +4°C° 0 mm 6 mps 735 mmHg 89%
    08:00 +5°C° 0 mm 6 mps 735 mmHg 86%
    09:00 +7°C° 0 mm 6 mps 736 mmHg 83%
    10:00 +6°C° 0 mm 7 mps 736 mmHg 80%
    11:00 +8°C° 0 mm 7 mps 736 mmHg 75%
    12:00 +9°C° 0 mm 7 mps 736 mmHg 70%
    13:00 +11°C° 0 mm 7 mps 737 mmHg 65%
    14:00 +11°C° 0 mm 6 mps 737 mmHg 64%
    15:00 +11°C° 0 mm 6 mps 737 mmHg 63%
    16:00 +12°C° 0 mm 5 mps 737 mmHg 62%
    17:00 +10°C° 0 mm 5 mps 737 mmHg 67%
    18:00 +10°C° 0 mm 4 mps 737 mmHg 71%
    19:00 +9°C° 0 mm 3 mps 738 mmHg 76%
    20:00 +9°C° 0 mm 3 mps 738 mmHg 78%
    21:00 +8°C° 0 mm 3 mps 738 mmHg 80%
    22:00 +7°C° 0 mm 3 mps 738 mmHg 82%
    23:00 +7°C° 0 mm 3 mps 738 mmHg 83%

    Tomorrow, 21 September, Friday

    Time Temperature Precipitation Wind Pressure Humidity
    00:00 +5°C° 0 mm 3 mps 738 mmHg 85%
    01:00 +6°C° 0 mm 2 mps 738 mmHg 86%
    02:00 +6°C° 0 mm 2 mps 738 mmHg 87%
    03:00 +5°C° 0 mm 2 mps 738 mmHg 88%
    04:00 +5°C° 0 mm 2 mps 739 mmHg 89%
    05:00 +4°C° 0 mm 3 mps 739 mmHg 89%
    06:00 +4°C° 0 mm 3 mps 739 mmHg 89%
    07:00 +4°C° 0 mm 3 mps 740 mmHg 89%
    08:00 +7°C° 0 mm 3 mps 740 mmHg 82%
    09:00 +8°C° 0 mm 4 mps 740 mmHg 76%
    10:00 +10°C° 0 mm 4 mps 741 mmHg 69%
    11:00 +11°C° 0 mm 4 mps 741 mmHg 64%
    12:00 +13°C° 0 mm 4 mps 741 mmHg 60%
    13:00 +14°C° 0 mm 5 mps 741 mmHg 56%
    14:00 +14°C° 0 mm 5 mps 742 mmHg 56%
    15:00 +14°C° 0 mm 4 mps 742 mmHg 55%
    16:00 +14°C° 0 mm 4 mps 742 mmHg 55%
    17:00 +13°C° 0 mm 4 mps 742 mmHg 60%
    18:00 +11°C° 0 mm 3 mps 743 mmHg 66%
    19:00 +10°C° 0 mm 2 mps 743 mmHg 71%
    20:00 +9°C° 0 mm 2 mps 743 mmHg 72%
    21:00 +9°C° 0 mm 2 mps 744 mmHg 74%
    22:00 +8°C° 0 mm 2 mps 744 mmHg 75%
    23:00 +8°C° 0 mm 2 mps 744 mmHg 79%

    Day after tomorrow, 22 September, Saturday

    Time Temperature Precipitation Wind Pressure Humidity
    00:00 +8°C° 0 mm 2 mps 745 mmHg 82%
    01:00 +7°C° 0 mm 2 mps 745 mmHg 85%
    02:00 +7°C° 0 mm 2 mps 745 mmHg 88%
    03:00 +7°C° 0 mm 2 mps 745 mmHg 90%
    04:00 +7°C° 0 mm 2 mps 746 mmHg 93%
    05:00 +8°C° 0 mm 2 mps 746 mmHg 94%
    06:00 +8°C° 0 mm 2 mps 746 mmHg 95%
    07:00 +8°C° 0 mm 2 mps 746 mmHg 96%
    08:00 +10°C° 0 mm 2 mps 747 mmHg 91%
    09:00 +13°C° 0 mm 2 mps 747 mmHg 86%
    10:00 +14°C° 0 mm 3 mps 747 mmHg 81%
    11:00 +16°C° 0 mm 3 mps 747 mmHg 77%
    12:00 +18°C° 0 mm 3 mps 747 mmHg 72%
    13:00 +19°C° 0 mm 3 mps 747 mmHg 67%
    14:00 +19°C° 0 mm 3 mps 747 mmHg 69%
    15:00 +19°C° 0 mm 3 mps 747 mmHg 70%
    16:00 +20°C° 0 mm 3 mps 746 mmHg 71%
    17:00 +18°C° 0 mm 3 mps 746 mmHg 77%
    18:00 +17°C° 0 mm 3 mps 746 mmHg 84%
    19:00 +16°C° 0 mm 3 mps 746 mmHg 90%
    20:00 +14°C° 0 mm 3 mps 746 mmHg 91%
    21:00 +14°C° 0 mm 3 mps 747 mmHg 92%
    22:00 +13°C° 0 mm 3 mps 747 mmHg 93%
    23:00 +13°C° 0 mm 3 mps 747 mmHg 93%

    23 September, Sunday

    Time Temperature Precipitation Wind Pressure Humidity
    00:00 +13°C° 0 mm 3 mps 747 mmHg 93%
    01:00 +12°C° 0 mm 3 mps 747 mmHg 94%
    02:00 +12°C° 0 mm 3 mps 747 mmHg 94%
    03:00 +12°C° 0 mm 3 mps 747 mmHg 94%
    04:00 +12°C° 0 mm 3 mps 747 mmHg 94%
    05:00 +12°C° 0 mm 3 mps 747 mmHg 94%
    06:00 +11°C° 0 mm 3 mps 747 mmHg 94%
    07:00 +12°C° 0 mm 2 mps 747 mmHg 94%
    08:00 +13°C° 0 mm 3 mps 747 mmHg 89%
    09:00 +16°C° 0 mm 3 mps 747 mmHg 83%
    10:00 +17°C° 0 mm 3 mps 747 mmHg 77%
    11:00 +18°C° 0 mm 4 mps 747 mmHg 73%
    12:00 +19°C° 0 mm 4 mps 746 mmHg 69%
    13:00 +21°C° 0 mm 4 mps 746 mmHg 64%
    14:00 +21°C° 0 mm 4 mps 746 mmHg 64%
    15:00 +21°C° 0 mm 4 mps 745 mmHg 64%
    16:00 +21°C° 0 mm 4 mps 745 mmHg 64%
    17:00 +19°C° 0 mm 4 mps 745 mmHg 70%
    18:00 +18°C° 0 mm 3 mps 744 mmHg 76%
    19:00 +16°C° 0 mm 3 mps 744 mmHg 82%
    20:00 +16°C° 0 mm 3 mps 744 mmHg 83%
    21:00 +14°C° 0 mm 3 mps 744 mmHg 84%
    22:00 +14°C° 0 mm 3 mps 744 mmHg 85%
    23:00 +13°C° 0 mm 3 mps 743 mmHg 84%

    24 September, Monday

    Time Temperature Precipitation Wind Pressure Humidity
    00:00 +13°C° 0 mm 3 mps 743 mmHg 82%
    01:00 +13°C° 0 mm 4 mps 743 mmHg 81%
    02:00 +13°C° 0 mm 4 mps 743 mmHg 79%
    03:00 +12°C° 0 mm 4 mps 743 mmHg 76%
    04:00 +12°C° 0 mm 4 mps 743 mmHg 74%
    05:00 +12°C° 0 mm 4 mps 742 mmHg 72%
    06:00 +12°C° 0 mm 4 mps 742 mmHg 70%
    07:00 +12°C° 0 mm 4 mps 742 mmHg 68%
    08:00 +13°C° 0 mm 5 mps 742 mmHg 62%
    09:00 +15°C° 0 mm 6 mps 742 mmHg 56%
    10:00 +17°C° 0 mm 7 mps 742 mmHg 51%
    11:00 +18°C° 0 mm 7 mps 742 mmHg 48%
    12:00 +20°C° 0 mm 7 mps 741 mmHg 46%
    13:00 +21°C° 0 mm 7 mps 741 mmHg 43%
    14:00 +21°C° 0 mm 6 mps 741 mmHg 45%
    15:00 +21°C° 0 mm 5 mps 741 mmHg 47%
    16:00 +21°C° 0 mm 5 mps 741 mmHg 49%
    17:00 +19°C° 0 mm 4 mps 741 mmHg 53%
    18:00 +17°C° 0 mm 3 mps 741 mmHg 58%
    19:00 +16°C° 0 mm 3 mps 741 mmHg 62%
    20:00 +14°C° 0 mm 3 mps 741 mmHg 63%
    21:00 +14°C° 0 mm 3 mps 741 mmHg 63%
    22:00 +15°C° 0 mm 2 mps 741 mmHg 64%
    23:00 +14°C° 0 mm 3 mps 741 mmHg 62%

    25 September, Tuesday

    Time Temperature Precipitation Wind Pressure Humidity
    00:00 +14°C° 0 mm 4 mps 740 mmHg 60%
    01:00 +14°C° 0 mm 4 mps 740 mmHg 58%
    02:00 +14°C° 0 mm 4 mps 740 mmHg 58%
    03:00 +14°C° 0 mm 5 mps 740 mmHg 58%
    04:00 +14°C° 0 mm 5 mps 740 mmHg 58%
    05:00 +13°C° 0 mm 5 mps 739 mmHg 61%
    06:00 +13°C° 0 mm 5 mps 739 mmHg 64%
    07:00 +13°C° 0 mm 5 mps 739 mmHg 68%
    08:00 +15°C° 0 mm 7 mps 739 mmHg 66%
    09:00 +16°C° 0 mm 8 mps 739 mmHg 64%
    10:00 +18°C° 0 mm 9 mps 738 mmHg 62%
    11:00 +18°C° 0 mm 9 mps 738 mmHg 59%
    12:00 +18°C° 0 mm 9 mps 738 mmHg 57%
    13:00 +19°C° 0 mm 9 mps 738 mmHg 54%
    14:00 +18°C° 0.2 mm 9 mps 738 mmHg 60%
    15:00 +17°C° 0.2 mm 8 mps 737 mmHg 65%
    16:00 +16°C° 0.2 mm 7 mps 737 mmHg 71%
    17:00 +15°C° 0.4 mm 7 mps 737 mmHg 72%
    18:00 +14°C° 0.4 mm 6 mps 737 mmHg 73%
    19:00 +12°C° 0.4 mm 5 mps 737 mmHg 74%
    20:00 +12°C° 0 mm 5 mps 738 mmHg 74%
    21:00 +12°C° 0 mm 5 mps 738 mmHg 74%
    22:00 +12°C° 0 mm 5 mps 738 mmHg 75%
    23:00 +10°C° 0 mm 5 mps 738 mmHg 78%
    Show more